Weather History for KDLS - August, 2013

Change the Weather History Date:

Monday, August 19, 2013

  Actual Average Record
Temperature  
Mean Temperature 76 °F -  
Max Temperature 91 °F 86 °F 103 °F (1967)
Min Temperature 63 °F 58 °F 45 °F (1973)
Cooling Degree Days 12    
Growing Degree Days 26 (Base 50)    
Moisture  
Dew Point 51 °F    
Average Humidity 42    
Maximum Humidity 70    
Minimum Humidity 24    
Precipitation  
Precipitation 0.00 in - - ()
Sea Level Pressure  
Sea Level Pressure 29.98 in    
Wind  
Wind Speed 12 mph (NW)    
Max Wind Speed 30 mph    
Max Gust Speed 37 mph    
Visibility 10 miles    
Events      
Averages and records for this station are not official NWS values.
T = Trace of Precipitation, MM = Missing Value Source: NWS Daily Summary

Daily Weather History Graph

Daily Weather History Graph

Search for Another Location

Airport or City:

Trip Planner

Search our weather history database for the weather conditions in past years. The results will help you decide how hot, cold, wet, or windy it might be!

Date:

Astronomy

Aug. 19, 2013 Rise Set
Actual Time 6:10 AM PDT 8:05 PM PDT
Civil Twilight 5:38 AM PDT 8:36 PM PDT
Nautical Twilight 4:59 AM PDT 9:15 PM PDT
Astronomical Twilight 4:16 AM PDT 9:58 PM PDT
Moon 6:59 PM PDT (8/19) 4:34 AM PDT (8/19)
Length of Visible Light 14h 58m
Length of Day
13h 54m
Waxing Gibbous, 98% of the Moon is Illuminated
Aug 19
Waxing Gibbous
Aug 20
Full
Aug 28
Last Quarter
Sep 5
New
Sep 12
First Quarter

Hourly Weather History & Observations

Time (PDT) Temp. Dew Point Humidity Pressure Visibility Wind Dir Wind Speed Gust Speed Precip Events Conditions
12:53 AM 72.0 °F 55.0 °F 55% 30.00 in 10.0 mi NW 11.5 mph - N/A   Clear
1:53 AM 69.1 °F 55.0 °F 61% 30.00 in 10.0 mi Calm Calm - N/A   Clear
2:53 AM 70.0 °F 55.0 °F 59% 30.00 in 10.0 mi NNW 6.9 mph - N/A   Clear
3:53 AM 68.0 °F 55.0 °F 63% 30.00 in 10.0 mi NW 10.4 mph - N/A   Clear
4:53 AM 68.0 °F 55.0 °F 63% 30.01 in 10.0 mi NW 10.4 mph - N/A   Clear
5:53 AM 66.9 °F 55.0 °F 66% 30.01 in 10.0 mi NNW 5.8 mph - N/A   Clear
6:53 AM 63.0 °F 53.1 °F 70% 30.02 in 10.0 mi East 3.5 mph - N/A   Clear
7:53 AM 68.0 °F 53.1 °F 59% 30.02 in 10.0 mi SE 4.6 mph - N/A   Clear
8:53 AM 75.0 °F 55.0 °F 50% 30.02 in 10.0 mi NNW 3.5 mph - N/A   Clear
9:53 AM 78.1 °F 55.0 °F 45% 30.02 in 10.0 mi NW 11.5 mph - N/A   Clear
10:53 AM 84.0 °F 46.9 °F 27% 30.01 in 10.0 mi WNW 16.1 mph 24.2 mph N/A   Clear
11:53 AM 87.1 °F 50.0 °F 28% 30.01 in 10.0 mi WNW 20.7 mph 33.4 mph N/A   Clear
12:53 PM 88.0 °F 50.0 °F 27% 29.99 in 10.0 mi WNW 20.7 mph 31.1 mph N/A   Clear
1:53 PM 87.1 °F 51.1 °F 29% 29.97 in 10.0 mi NW 19.6 mph 29.9 mph N/A   Clear
2:53 PM 90.0 °F 48.9 °F 24% 29.96 in 10.0 mi NW 24.2 mph 32.2 mph N/A   Clear
3:53 PM 89.1 °F 48.9 °F 25% 29.93 in 10.0 mi WNW 29.9 mph 36.8 mph N/A   Clear
4:53 PM 88.0 °F 50.0 °F 27% 29.92 in 10.0 mi WNW 20.7 mph 33.4 mph N/A   Clear
5:53 PM 86.0 °F 50.0 °F 29% 29.94 in 10.0 mi WNW 23.0 mph 32.2 mph N/A   Clear
6:53 PM 82.9 °F 48.9 °F 31% 29.92 in 10.0 mi West 25.3 mph 32.2 mph N/A   Clear
7:53 PM 80.1 °F 45.0 °F 29% 29.93 in 10.0 mi WNW 19.6 mph 28.8 mph N/A   Clear
8:53 PM 78.1 °F 44.1 °F 30% 29.95 in 10.0 mi West 16.1 mph - N/A   Clear
9:53 PM 78.1 °F 46.0 °F 32% 29.96 in 10.0 mi West 17.3 mph 25.3 mph N/A   Clear
10:53 PM 73.0 °F 48.9 °F 42% 29.98 in 10.0 mi NNW 9.2 mph - N/A   Clear
11:53 PM 73.9 °F 46.9 °F 38% 29.98 in 10.0 mi NW 16.1 mph 26.5 mph N/A   Clear